GW5117 Weather Reports


time (UTC)temp
F
wind
direction
speed
knots
gust
knots
rain 1hr
in
rain 24hr
in
rain mn
in
humidity
%
barometer
mb
20260507094150 46 124 0.0 0.0 0.00 0.00 0.00 99 1015.7
20260507093647 46 124 0.0 0.0 0.00 0.00 0.00 99 1015.9
20260507093146 46 124 0.0 0.0 0.00 0.00 0.00 99 1015.8
20260507092642 46 109 0.0 0.0 0.00 0.00 0.00 99 1015.5
20260507092139 46 99 0.0 0.0 0.00 0.00 0.00 99 1015.6
20260507091635 46 98 0.0 0.0 0.00 0.00 0.00 99 1015.6
20260507091132 47 90 0.0 0.0 0.00 0.00 0.00 99 1015.5
20260507090627 46 89 0.0 0.0 0.00 0.00 0.00 99 1015.5
20260507090125 47 89 0.0 0.0 0.00 0.00 0.00 99 1015.4
20260507085622 47 89 0.0 0.0 0.00 0.00 0.00 99 1015.8
20260507085118 47 89 0.0 0.0 0.00 0.00 0.00 99 1015.3
20260507084615 47 89 0.0 0.0 0.00 0.00 0.00 99 1015.6
20260507084112 47 89 0.0 0.0 0.00 0.00 0.00 99 1015.7
20260507083609 47 89 0.0 0.0 0.00 0.00 0.00 99 1015.2
20260507083106 48 89 0.0 0.0 0.00 0.00 0.00 99 1015.3
20260507082601 48 89 0.0 0.0 0.00 0.00 0.00 99 1015.2
20260507082058 48 89 0.0 0.0 0.00 0.00 0.00 99 1015.4
20260507081554 48 89 0.0 0.0 0.00 0.00 0.00 99 1015.6
20260507081051 48 89 0.0 0.0 0.00 0.00 0.00 99 1015.5
20260507080547 48 89 0.0 0.0 0.00 0.00 0.00 99 1015.7
20260507080044 48 89 0.0 0.0 0.00 0.00 0.00 99 1015.7
20260507075539 49 89 0.0 0.0 0.00 0.00 0.00 99 1015.5
20260507075036 49 89 0.0 0.0 0.00 0.00 0.00 99 1015.7
20260507074532 49 89 0.0 0.0 0.00 0.00 0.00 99 1015.6
20260507074031 49 89 0.0 0.0 0.00 0.00 0.00 99 1015.5
20260507073527 49 89 0.0 0.0 0.00 0.00 0.00 99 1015.5
20260507073023 49 90 0.0 0.0 0.00 0.00 0.00 99 1015.6
20260507072521 49 90 0.0 0.0 0.00 0.00 0.00 99 1015.5
20260507072018 49 90 0.0 0.0 0.00 0.00 0.00 99 1015.6
20260507071515 49 90 0.0 0.0 0.00 0.00 0.00 99 1015.8
20260507071012 49 90 0.0 0.0 0.00 0.00 0.00 99 1016.0
20260507070509 49 88 0.0 0.0 0.00 0.00 0.00 99 1015.9
20260507070010 49 73 0.0 0.0 0.00 0.00 0.00 99 1015.6
20260507065502 49 73 0.0 0.0 0.00 0.00 0.00 99 1015.5
20260507064959 49 71 0.0 0.0 0.00 0.00 0.00 99 1015.5
20260507064458 49 71 0.0 0.0 0.00 0.00 0.00 99 1015.6
20260507063955 49 71 0.0 0.0 0.00 0.00 0.00 99 1015.6
20260507063452 49 71 0.0 0.0 0.00 0.00 0.00 99 1015.7
20260507062949 49 71 0.0 0.0 0.00 0.00 0.00 99 1015.7
20260507062446 49 71 0.0 0.0 0.00 0.00 0.00 99 1015.7
20260507061943 49 71 0.0 0.0 0.00 0.00 0.00 99 1015.7
20260507061442 49 71 0.0 0.0 0.00 0.00 0.00 99 1015.9
20260507060940 49 71 0.0 0.0 0.00 0.00 0.00 99 1015.7
20260507060436 49 71 0.0 0.0 0.00 0.00 0.00 99 1015.8
20260507055933 49 71 0.0 0.0 0.00 0.00 0.00 99 1015.7
20260507055428 49 71 0.0 0.0 0.00 0.00 0.00 99 1015.9
20260507054925 49 71 0.0 0.0 0.00 0.00 0.00 99 1015.7
20260507054421 49 71 0.0 0.0 0.00 0.00 0.00 99 1015.9
20260507053919 49 71 0.0 0.0 0.00 0.00 0.00 99 1015.9
20260507053416 49 71 0.0 0.0 0.00 0.00 0.00 99 1016.0
20260507052915 49 71 0.0 0.0 0.00 0.00 0.00 99 1015.9
20260507052412 49 71 0.0 0.0 0.00 0.00 0.00 99 1015.9
20260507051909 49 71 0.0 0.0 0.00 0.00 0.00 99 1016.2
20260507051407 49 71 0.0 0.0 0.00 0.00 0.00 99 1016.2
20260507050903 49 71 0.0 0.0 0.00 0.00 0.00 99 1016.1
20260507050359 49 71 0.0 0.0 0.00 0.00 0.00 99 1016.0
20260507045856 49 71 0.0 0.0 0.00 0.00 0.00 99 1016.1
20260507045353 49 71 0.0 0.0 0.00 0.00 0.00 99 1016.1
20260507044850 49 71 0.0 0.0 0.00 0.00 0.00 99 1016.4
20260507044347 49 71 0.0 0.0 0.00 0.00 0.00 99 1016.1
20260507043842 49 71 0.0 0.0 0.00 0.00 0.00 99 1016.1
20260507043339 49 71 0.0 0.0 0.00 0.00 0.00 99 1016.1
20260507042836 49 71 0.0 0.0 0.00 0.00 0.00 99 1016.1
20260507042331 49 57 0.0 0.0 0.00 0.00 0.00 99 1016.2
20260507041829 49 57 0.0 0.0 0.00 0.00 0.00 98 1016.1
20260507041325 50 57 0.0 0.0 0.00 0.00 0.00 98 1016.2
20260507040822 50 50 0.9 1.7 0.00 0.00 0.00 97 1016.2
20260507040318 50 49 2.6 2.6 0.07 0.00 0.00 97 1016.1
20260507035814 50 42 0.0 2.6 0.07 0.89 0.89 97 1016.3
20260507035310 51 341 0.0 2.6 0.00 0.88 0.88 98 1015.8
20260507034808 51 333 2.6 2.6 0.07 0.88 0.88 99 1015.9
20260507034304 52 16 0.0 3.5 0.07 0.88 0.88 99 1015.8
20260507033803 52 263 0.0 5.2 0.00 0.87 0.87 99 1015.5
20260507033300 53 32 0.0 2.6 0.05 0.87 0.87 99 1015.9
20260507032757 54 71 1.7 1.7 0.05 0.87 0.87 99 1015.7
20260507032253 54 202 0.0 0.0 0.00 0.86 0.86 99 1015.5
20260507031749 54 199 0.0 0.0 0.00 0.86 0.86 99 1015.5
20260507031247 54 351 0.0 0.0 0.00 0.86 0.86 99 1015.4
20260507030743 54 351 0.0 0.0 0.07 0.86 0.86 99 1015.4
20260507030240 54 353 0.0 0.0 0.12 0.86 0.86 99 1015.6
20260507025738 54 353 0.0 0.9 0.05 0.85 0.85 99 1015.5
20260507025235 54 94 0.0 0.0 0.00 0.84 0.84 99 1015.5
20260507024733 54 181 0.0 0.0 0.07 0.84 0.84 99 1015.6
20260507024230 54 184 0.0 0.0 0.12 0.84 0.84 99 1015.7
20260507023725 54 147 0.0 0.0 0.05 0.83 0.83 99 1015.5
20260507023222 54 139 0.0 0.0 0.07 0.82 0.82 99 1015.6
20260507022720 54 138 0.0 0.0 0.19 0.82 0.82 99 1015.9
20260507022215 54 155 0.0 0.0 0.17 0.81 0.81 99 1015.7
20260507021712 54 161 0.0 0.0 0.07 0.78 0.78 99 1015.4
20260507021207 54 211 0.0 1.7 0.00 0.77 0.77 99 1015.2
20260507020706 54 194 1.7 1.7 0.00 0.77 0.77 99 1015.0
20260507020202 54 100 0.0 0.0 0.00 0.77 0.77 99 1015.2
20260507015700 54 100 0.0 0.0 0.00 0.77 0.77 99 1015.1
20260507015157 54 99 0.0 0.0 0.00 0.77 0.77 99 1015.1
20260507014653 55 99 0.0 0.0 0.00 0.77 0.77 99 1015.0
20260507014150 54 100 0.0 0.0 0.00 0.77 0.77 99 1014.7
20260507013647 54 100 0.0 0.0 0.00 0.77 0.77 99 1014.8
20260507013144 54 100 0.0 0.0 0.00 0.77 0.77 99 1014.8
20260507012641 54 100 0.0 0.0 0.00 0.77 0.77 99 1014.8
20260507012136 54 100 0.0 0.0 0.00 0.77 0.77 99 1014.8
20260507011635 55 100 0.0 0.0 0.00 0.77 0.77 99 1014.8
20260507011131 55 150 0.0 0.0 0.00 0.77 0.77 99 1014.5
20260507010626 55 153 0.0 0.0 0.00 0.77 0.77 99 1014.6
20260507010122 55 156 0.0 0.0 0.00 0.77 0.77 99 1014.3
20260507005619 55 156 0.0 0.0 0.00 0.77 0.77 99 1014.5
20260507005115 55 156 0.0 0.0 0.00 0.77 0.77 99 1014.6
20260507004612 55 141 0.0 0.0 0.00 0.77 0.77 99 1014.5
20260507004110 55 140 0.0 0.0 0.00 0.77 0.77 99 1014.5
20260507003606 55 140 0.0 0.0 0.00 0.77 0.77 98 1014.6
20260507003101 55 150 0.0 0.0 0.00 0.77 0.77 98 1014.2
20260507002558 55 169 0.0 0.0 0.00 0.77 0.77 98 1013.9
20260507002053 55 173 0.0 0.0 0.00 0.77 0.77 98 1014.3
20260507001550 55 179 0.0 0.0 0.00 0.77 0.77 98 1014.3
20260507001048 55 179 0.0 0.0 0.00 0.77 0.77 98 1014.2
20260507000544 55 186 0.0 0.0 0.00 0.77 0.77 98 1014.7
20260507000039 55 192 0.0 0.0 0.00 0.77 0.77 97 1014.5
20260506235537 55 195 0.0 0.0 0.00 0.77 0.77 97 1014.0
20260506235027 55 155 0.0 0.0 0.00 0.77 0.77 97 1014.1
20260506234525 55 150 0.0 0.0 0.00 0.77 0.77 97 1013.6
20260506234021 55 167 0.0 0.0 0.00 0.77 0.77 97 1013.7
20260506233518 56 167 0.0 0.0 0.00 0.77 0.77 96 1014.0
20260506233015 56 166 0.0 0.0 0.00 0.77 0.77 96 1014.1
20260506232511 56 167 0.0 0.0 0.00 0.77 0.77 96 1014.4
20260506232007 56 166 0.0 0.0 0.00 0.77 0.77 96 1014.4
20260506231504 56 170 0.0 0.0 0.00 0.77 0.77 96 1014.6
20260506231002 56 170 0.0 0.0 0.00 0.77 0.77 96 1014.2
20260506230458 56 170 0.0 0.0 0.00 0.77 0.77 96 1014.2
20260506225955 56 170 0.0 0.0 0.00 0.77 0.77 96 1014.4
20260506225452 56 170 0.0 0.0 0.00 0.77 0.77 96 1014.4
20260506224948 56 170 0.0 0.0 0.00 0.77 0.77 95 1014.4
20260506224446 56 170 0.0 0.0 0.00 0.77 0.77 95 1014.3
20260506223942 56 186 0.0 0.0 0.00 0.77 0.77 94 1014.3
20260506223438 56 186 0.0 0.0 0.00 0.77 0.77 93 1014.2
20260506222935 56 189 0.0 1.7 0.00 0.77 0.77 93 1014.5
20260506222432 56 202 0.0 0.9 0.00 0.77 0.77 93 1014.4
20260506221929 56 178 0.0 0.0 0.00 0.77 0.77 94 1014.1
20260506221426 56 186 0.0 0.9 0.00 0.77 0.77 94 1014.2
20260506220924 56 199 0.0 0.9 0.00 0.77 0.77 94 1014.3
20260506220419 56 171 0.0 0.0 0.00 0.77 0.77 94 1014.1
20260506215916 56 190 0.0 0.0 0.00 0.77 0.77 93 1014.0
20260506215412 56 166 0.0 0.9 0.00 0.77 0.77 94 1014.0
20260506214908 56 172 0.0 0.0 0.00 0.77 0.77 93 1013.9
20260506214405 56 215 0.9 0.9 0.00 0.77 0.77 93 1014.0
20260506213903 56 152 0.0 0.0 0.00 0.77 0.77 93 1014.0
20260506213400 56 195 0.0 0.0 0.00 0.77 0.77 93 1013.8
20260506212857 56 202 0.0 0.0 0.00 0.77 0.77 93 1013.9
20260506212353 56 171 0.0 0.9 0.00 0.77 0.77 92 1014.0
20260506211847 57 202 0.0 1.7 0.00 0.77 0.77 91 1014.0
20260506211344 57 135 0.0 0.0 0.00 0.77 0.77 91 1013.7
20260506210841 56 140 0.0 0.0 0.00 0.77 0.77 91 1013.6
20260506210338 56 150 0.0 0.0 0.00 0.77 0.77 94 1014.0
20260506205835 56 71 0.0 1.7 0.00 0.77 0.77 94 1013.9
20260506205331 56 84 0.0 0.9 0.00 0.77 0.77 94 1014.0
20260506204828 56 87 0.0 0.9 0.00 0.77 0.77 95 1013.8
20260506204326 56 97 0.0 0.0 0.00 0.77 0.77 94 1013.8
20260506203823 55 83 0.0 0.0 0.00 0.77 0.77 92 1013.9
20260506203320 55 48 0.0 0.0 0.00 0.77 0.77 92 1013.9
20260506202817 55 48 0.0 0.0 0.00 0.77 0.77 92 1013.8
20260506202314 55 43 0.0 0.0 0.00 0.77 0.77 91 1013.6
20260506201810 56 44 0.0 0.0 0.00 0.77 0.77 92 1013.7
20260506201308 55 44 0.0 0.0 0.00 0.77 0.77 92 1013.6
20260506200805 55 44 0.0 0.0 0.00 0.77 0.77 92 1013.8
20260506200255 55 47 0.0 0.9 0.00 0.77 0.77 93 1013.5
20260506195752 55 48 0.9 1.7 0.00 0.77 0.77 92 1013.6
20260506195248 55 3 0.9 1.7 0.00 0.77 0.77 92 1013.6
20260506194746 55 62 0.0 0.0 0.00 0.77 0.77 93 1013.5
20260506194242 55 56 0.0 0.0 0.00 0.77 0.77 93 1013.5
20260506193740 54 23 0.0 1.7 0.00 0.77 0.77 94 1013.6
20260506193237 55 117 0.0 0.0 0.00 0.77 0.77 94 1013.6
20260506192733 55 101 0.0 2.6 0.00 0.77 0.77 93 1013.4
20260506192230 55 57 0.0 0.9 0.00 0.77 0.77 93 1013.8
20260506191727 55 48 1.7 2.6 0.00 0.77 0.77 93 1013.6
20260506191223 54 59 0.0 1.7 0.00 0.77 0.77 93 1013.6
20260506190720 55 77 0.0 0.9 0.00 0.77 0.77 94 1013.5
20260506190217 54 341 0.0 0.9 0.00 0.77 0.77 93 1013.5
20260506185715 54 57 0.0 1.7 0.00 0.77 0.77 93 1013.4
20260506185210 54 349 0.9 2.6 0.00 0.77 0.77 94 1013.4
20260506184708 54 57 0.9 0.9 0.00 0.77 0.77 94 1013.4
20260506184205 54 57 1.7 1.7 0.00 0.77 0.77 94 1013.3
20260506183701 54 13 0.9 2.6 0.00 0.77 0.77 95 1013.4
20260506183157 54 64 0.0 1.7 0.00 0.77 0.77 96 1013.3
20260506182655 54 64 0.0 1.7 0.00 0.77 0.77 96 1013.4
20260506182151 54 30 2.6 5.2 0.00 0.77 0.77 96 1013.3
20260506181650 54 37 1.7 5.2 0.00 0.77 0.77 97 1013.5
20260506181146 54 41 1.7 2.6 0.00 0.77 0.77 97 1013.4
20260506180644 54 20 1.7 2.6 0.00 0.77 0.77 97 1013.4
20260506180140 54 353 1.7 2.6 0.00 0.77 0.77 97 1013.3
20260506175636 54 42 3.5 5.2 0.00 0.77 0.77 97 1013.2
20260506175133 53 43 2.6 3.5 0.00 0.77 0.77 98 1013.3
20260506174631 53 31 2.6 3.5 0.00 0.77 0.77 98 1013.2
20260506174127 54 30 2.6 3.5 0.00 0.77 0.77 98 1013.2
20260506173625 54 46 3.5 5.2 0.00 0.77 0.77 97 1013.2
20260506173121 54 10 0.9 2.6 0.00 0.77 0.77 97 1013.4
20260506172619 54 68 0.9 2.6 0.00 0.77 0.77 97 1013.2
20260506172115 54 49 0.0 1.7 0.00 0.77 0.77 97 1013.3
20260506171613 54 17 2.6 2.6 0.00 0.77 0.77 97 1013.1
20260506171110 54 43 2.6 3.5 0.00 0.77 0.77 98 1013.1
20260506170607 54 87 0.0 0.9 0.00 0.77 0.77 98 1012.9
20260506170105 54 62 2.6 6.1 0.00 0.77 0.77 98 1013.1
20260506165603 55 30 1.7 3.5 0.00 0.77 0.77 98 1013.0
20260506165059 55 95 0.9 1.7 0.00 0.77 0.77 98 1013.1
20260506164556 55 21 1.7 1.7 0.00 0.77 0.77 99 1013.0
20260506164053 55 48 0.9 3.5 0.07 0.77 0.77 99 1013.0
20260506163549 55 33 0.9 2.6 0.07 0.77 0.77 99 1012.8
20260506163045 55 33 2.6 3.5 0.00 0.76 0.76 99 1012.8
20260506162541 54 18 1.7 2.6 0.00 0.76 0.76 99 1013.1
20260506162039 54 339 0.0 0.9 0.00 0.76 0.76 99 1012.9
20260506161536 55 30 2.6 2.6 0.00 0.76 0.76 98 1012.9
20260506161033 55 30 2.6 2.6 0.00 0.76 0.76 98 1012.9
20260506160531 55 69 0.9 0.9 0.00 0.76 0.76 98 1013.0
20260506160028 55 62 0.9 2.6 0.00 0.76 0.76 98 1012.8
20260506155526 55 75 0.0 1.7 0.00 0.76 0.76 97 1012.7
20260506153657 55 109 1.7 5.2 0.00 0.76 0.76 98 1012.3
20260506153154 56 358 0.9 3.5 0.00 0.76 0.76 99 1012.0
20260506152651 56 57 5.2 9.6 0.00 0.76 0.76 99 1011.7
20260506152149 59 63 2.6 5.2 0.05 0.76 0.76 99 1011.5
20260506151648 60 100 0.0 0.0 0.00 0.75 0.75 99 1011.5
20260506151143 60 102 0.0 0.0 0.00 0.75 0.75 99 1011.4
20260506150641 60 130 0.0 0.0 0.00 0.75 0.75 99 1011.3
20260506150138 60 118 0.0 0.0 0.00 0.75 0.75 99 1011.1
20260506145635 60 139 0.0 0.0 0.00 0.75 0.75 99 1011.2
20260506145131 60 123 0.0 1.7 0.00 0.75 0.75 99 1011.0
20260506144629 60 93 0.0 0.9 0.00 0.75 0.75 99 1011.3
20260506144125 60 92 0.0 0.0 0.00 0.75 0.75 99 1011.1
20260506143623 60 171 0.0 0.0 0.07 0.75 0.75 99 1011.2
20260506143121 59 153 0.0 0.9 0.07 0.75 0.75 99 1011.1
20260506142619 59 186 0.0 0.9 0.00 0.74 0.74 99 1011.0
20260506142117 59 269 0.0 1.7 0.00 0.74 0.74 99 1011.1
20260506141614 59 74 0.0 1.7 0.00 0.74 0.74 99 1011.0
20260506141112 59 156 0.0 0.9 0.00 0.74 0.74 99 1010.7
20260506140609 59 144 0.0 0.0 0.00 0.74 0.74 99 1010.6
20260506140107 59 157 0.0 0.0 0.05 0.74 0.74 99 1010.7
20260506135603 59 152 0.0 0.9 0.05 0.74 0.74 99 1010.6
20260506135059 59 205 0.0 0.9 0.00 0.73 0.73 99 1010.5
20260506134556 59 143 0.0 1.7 0.00 0.73 0.73 99 1010.2
20260506134052 59 154 0.0 0.9 0.00 0.73 0.73 99 1009.9
20260506133549 59 208 0.0 0.0 0.00 0.73 0.73 99 1010.2
20260506133046 59 146 0.0 1.7 0.07 0.73 0.73 99 1010.0
20260506132544 59 103 0.0 0.0 0.07 0.73 0.73 99 1010.2
20260506132041 58 124 0.0 0.0 0.00 0.72 0.72 99 1010.1
20260506131538 58 155 0.0 0.0 0.00 0.72 0.72 99 1010.2
20260506131034 58 143 0.0 0.0 0.05 0.72 0.72 99 1010.0
20260506130531 58 215 0.0 0.0 0.05 0.72 0.72 99 1010.0
20260506130029 58 144 0.0 0.0 0.00 0.71 0.71 99 1010.3
20260506125527 58 121 0.0 0.0 0.07 0.71 0.71 99 1010.2
20260506125024 58 156 0.0 0.0 0.07 0.71 0.71 99 1010.1
20260506124522 58 194 0.0 0.0 0.00 0.70 0.70 99 1009.9
20260506124020 58 202 0.0 0.0 0.00 0.70 0.70 99 1010.0
20260506123517 58 192 0.0 0.0 0.00 0.70 0.70 99 1009.8
20260506123015 58 170 0.0 0.0 0.05 0.70 0.70 99 1009.7
20260506122512 58 173 0.0 0.0 0.05 0.70 0.70 99 1010.0
20260506122010 58 157 0.0 0.0 0.00 0.69 0.69 99 1009.8
20260506121507 58 169 0.0 0.0 0.07 0.69 0.69 99 1009.8
20260506121003 58 175 0.0 0.9 0.07 0.69 0.69 99 1009.8
20260506120501 58 154 0.0 0.0 0.00 0.68 0.68 99 1009.8
20260506115958 58 151 0.0 0.0 0.05 0.68 0.68 99 1009.6
20260506115456 58 142 0.0 0.0 0.12 0.68 0.68 99 1009.6
20260506114954 57 131 0.0 0.0 0.12 0.67 0.67 99 1009.8
20260506114451 57 121 0.0 0.0 0.07 0.65 0.65 99 1009.9
20260506113950 57 112 0.0 0.0 0.19 0.65 0.65 99 1010.1
20260506113447 57 113 0.0 0.0 0.19 0.64 0.64 99 1009.9
20260506112943 57 110 0.0 0.0 0.12 0.62 0.62 99 1009.8
20260506112441 57 115 0.0 0.0 0.05 0.61 0.61 99 1010.0
20260506111938 57 113 0.0 0.0 0.00 0.60 0.60 99 1009.8
20260506111436 57 105 0.0 0.9 0.07 0.60 0.60 99 1009.7
20260506110933 57 172 0.0 0.0 0.07 0.60 0.60 99 1009.7
20260506110431 57 172 0.0 0.0 0.00 0.59 0.59 99 1009.6
20260506105927 57 169 0.0 0.0 0.00 0.59 0.59 99 1009.4
20260506105423 57 153 0.0 0.0 0.00 0.59 0.59 99 1009.3
20260506104921 57 156 0.0 0.0 0.05 0.59 0.59 99 1009.3
20260506104419 57 157 0.0 0.0 0.05 0.59 0.59 99 1009.2
20260506103917 57 193 0.0 0.0 0.12 0.58 0.58 99 1009.2
20260506103414 57 130 0.0 0.0 0.12 0.57 0.57 99 1009.2
20260506102911 57 177 0.0 0.0 0.12 0.56 0.56 99 1009.0
20260506102409 57 274 0.0 0.0 0.17 0.55 0.55 99 1009.0
20260506101906 57 104 0.0 1.7 0.12 0.53 0.53 99 1008.9
20260506101402 57 97 0.0 0.0 0.14 0.52 0.52 99 1008.4
20260506100859 57 172 0.0 0.0 0.05 0.50 0.50 99 1008.7
20260506100358 57 172 0.0 0.0 0.07 0.49 0.49 99 1008.8
20260506095855 57 155 0.0 0.0 0.12 0.49 0.49 99 1008.6
20260506095353 57 151 0.0 0.0 0.17 0.48 0.48 99 1008.7
20260506094850 57 150 0.0 0.0 0.17 0.46 0.46 99 1008.6
20260506094349 57 124 0.0 0.0 0.31 0.45 0.45 99 1008.4